Location: Glenbow
(51.1592°N, 114.3828°W)
Time: 19:52:00
(UTC+00:00)

Envisat - Pass Details

Date: 03 December 2021
Orbit: 764 x 766 km, 98.2° (Epoch: 26 January)

Event Time Altitude Azimuth Distance (km) Brightness Sun altitude
Rises 14:27:23 0° 4° (N) 3,248 6.0 -8.3°
Reaches altitude 10° 14:30:18 10° 348° (NNW) 2,317 5.1 -7.9°
Maximum altitude 14:33:47 19° 304° (NW) 1,769 4.3 -7.4°
Drops below altitude 10° 14:37:16 10° 261° (W) 2,306 5.0 -6.9°
Sets 14:40:09 0° 244° (WSW) 3,228 5.9 -6.5°
